Miscellaneous Local Product
Issued by NWS North Platte, NE

Home | Current Version | Previous Version | Text Only | Print | Product List | Glossary On
Versions: 1 2 3 4 5 6 7 8 9 10 11 12 13 14 15 16 17 18 19 20 21 22 23 24 25 26 27 28 29 30 31 32 33 34 35 36 37 38 39 40 41 42 43 44 45 46 47 48 49 50
000
AXUS43 KLBF 251310
MISLBF


WESTERN AND NORTH CENTRAL NEBRASKA HOURLY WEATHER ROUNDUP
NATIONAL WEATHER SERVICE NORTH PLATTE NE
800 AM CDT SAT MAR 25 2017

NOTE: "FAIR" INDICATES FEW OR NO CLOUDS BELOW 12,000 FEET WITH NO
SIGNIFICANT WEATHER AND/OR OBSTRUCTIONS TO VISIBILITY.

NOTE: STATIONS NOT REPORTING VARIABLES SUCH AS SKY/WEATHER OR
PRESSURE ARE PROVIDED BY RAWS AND APRS NETWORKS AND ARE NOT UNDER
NATIONAL WEATHER SERVICE QUALITY CONTROL.

...OBSERVATIONS IN AND NEAR THE EASTERN PANHANDLE OF NEBRASKA...

CITY           SKY/WX    TMP DP  RH WIND       PRES   REMARKS
PINE RIDGE     CLOUDY    41  31  67 S15       29.99F
CHADRON        CLOUDY    38  29  70 S8        29.98F WCI  32
ALLIANCE       CLOUDY    26  24  92 SE5       30.03S WCI  20
SIDNEY         CLOUDY    21  18  88 SW10      30.05S WCI  10
$$

...OBSERVATIONS IN NORTHERN NEBRASKA AND FAR SOUTHERN SOUTH DAKOTA...

CITY           SKY/WX    TMP DP  RH WIND       PRES   REMARKS
WINNER         FOG       31  30  96 S8        30.09R VSB 1/2 WCI  23
VALENTINE      FOG       23  20  88 E7        30.06F VSB 1/2 WCI  15
THEDFORD       CLOUDY    23  22  96 CALM      30.07R
AINSWORTH      FOG       29  29 100 SE3       30.07S VSB<1/4
O`NEILL        FOG       34  34 100 NE6       30.09F VSB 1/4 WCI  29
ORD            CLOUDY    35  33  92 N8        30.06S FOG     WCI  29
BROKEN BOW     FOG       33  32  96 N8        30.05S VSB 1/2 WCI  26
VALENTINE NWR    N/A     25  24  96 CALM        N/A
HALSEY           N/A     27  27  98 CALM        N/A
BUTTE            N/A     32  31  97 NE7         N/A  WCI  26
CHAMBERS         N/A     34  33  98 N3          N/A
EWING            N/A     34  33  96 MISG        N/A
$$

...OBSERVATIONS IN SOUTHWEST NEBRASKA AND FAR NORTHEAST COLORADO...

CITY           SKY/WX    TMP DP  RH WIND       PRES   REMARKS
WRAY           FAIR      30  30 100 SW5       30.06F WCI  25
HOLYOKE        FAIR      34  32  93 W8        30.05S WCI  27
IMPERIAL       CLOUDY    32  27  81 NW8       30.06R WCI  25
OGALLALA       CLOUDY    26  25  94 CALM      30.07R
NORTH PLATTE   CLOUDY    27  24  89 W5        30.06R WCI  22
MCCOOK         CLEAR     32  30  92 W3        30.04R
LEXINGTON      CLOUDY    35  33  94 N10G17    30.04F FOG     WCI  27
STAPLETON        N/A     25  24  93 CALM        N/A
GOTHENBURG       N/A     31  28  89 NW3         N/A
CALLAWAY         N/A     30  29  95 N7          N/A  WCI  23
$$

...OBSERVATIONS IN CENTRAL LINCOLN COUNTY AREA...

CITY           SKY/WX    TMP DP  RH WIND       PRES   REMARKS
N.P. AIRPORT   CLOUDY    27  24  89 W5        30.06R WCI  22
N.P. DOWNTOWN    N/A     30  28  90 CALM        N/A
N.P. SOUTHEAST   N/A     30  27  88 CALM        N/A
N.P. HILLCREST   N/A     29  27  90 NW3         N/A
$$

...SOME OBSERVATIONS FROM AROUND THE REGION...

CITY           SKY/WX    TMP DP  RH WIND       PRES   REMARKS
DENVER         CLOUDY    32  26  78 SW10      30.04F WCI  24
LIMON          CLOUDY    23  22  96 NW3       30.09R
ASPEN          CLOUDY    29  20  69 S3        30.14F
LARAMIE        CLOUDY    36  22  56 SW13      30.04F WCI  27
GILLETTE       CLOUDY    46  32  58 CALM      29.91R
CHEYENNE       CLOUDY    32  26  78 SW9       30.03S WCI  24
SCOTTSBLUFF    CLOUDY    31  27  85 E10       30.02S WCI  22
GRAND ISLAND   CLOUDY    36  36 100 N16       30.03R WCI  26
OMAHA          LGT RAIN  40  36  86 N17       29.98R WCI  31
SIOUX FALLS    CLOUDY    35  34  96 NE10      30.12R FOG     WCI  27
PIERRE         FOG       31  30  96 SE16      30.06F VSB 1/4 WCI  20
RAPID CITY     CLOUDY    35  28  75 SE12      29.95R WCI  27
BISMARCK       CLOUDY    31  30  96 SE10      30.04S FOG     WCI  22
KANSAS CITY    FOG       53  53 100 N9        29.80R VSB 1/4
HILL CITY      CLOUDY    39  36  89 N12       30.03R WCI  32
WICHITA        CLOUDY    43  42  97 N23G30    29.91R
DODGE CITY     MOCLDY    40  38  93 N13       29.99R WCI  32
OKLAHOMA CITY  CLOUDY    47  42  83 NW17      29.94R
DALLAS         CLEAR     55  45  68 NW12      29.99R
AMARILLO       CLEAR     36  32  85 W13       30.10R WCI  27
$$




USA.gov is the U.S. government's official web portal to all federal, state and local government web resources and services.